,,,PA_Meas_PMT16A,,PR_Meas_QMR101_102,,RH_Meas_QMH101,,SR_Meas_QMS101,,TA_Meas_QMH101,,GenWind,,GenWind,
date,time,status,PA,status,PR,status,RH,status,SR,status,TA,status,DirAvg,status,SpdAvg,
2012-08-06, 00:00:04,VALID,1010.74,VALID,0,VALID,104,VALID,0,VALID,22.6402,VALID,28,VALID,0.448828,
2012-08-06, 00:01:04,VALID,1010.68,VALID,0,VALID,104,VALID,0,VALID,22.6809,VALID,28,VALID,0.149609,
2012-08-06, 00:02:04,VALID,1010.65,VALID,0,VALID,104,VALID,0,VALID,22.7394,VALID,308,VALID,0.757813,
2012-08-06, 00:03:04,VALID,1010.61,VALID,0,VALID,104,VALID,0,VALID,22.7394,VALID,297,VALID,0.125391,
2012-08-06, 00:04:04,VALID,1010.59,VALID,0,VALID,104,VALID,0,VALID,22.7783,VALID,297,VALID,0,
2012-08-06, 00:05:04,VALID,1010.6,VALID,0,VALID,104,VALID,0,VALID,22.7783,VALID,297,VALID,0,
2012-08-06, 00:06:04,VALID,1010.57,VALID,0,VALID,104,VALID,0,VALID,22.7783,VALID,297,VALID,0.132813,
2012-08-06, 00:07:04,VALID,1010.58,VALID,0,VALID,104,VALID,0,VALID,22.7978,VALID,297,VALID,0.392188,
2012-08-06, 00:08:04,VALID,1010.58,VALID,0,VALID,104,VALID,0,VALID,22.7978,VALID,297,VALID,0.140234,
2012-08-06, 00:09:04,VALID,1010.58,VALID,0,VALID,104,VALID,0,VALID,22.7978,VALID,297,VALID,0,
2012-08-06, 00:10:04,VALID,1010.56,VALID,0,VALID,104,VALID,0,VALID,22.7961,VALID,297,VALID,0.106641,
2012-08-06, 00:11:04,VALID,1010.56,VALID,0,VALID,104,VALID,0,VALID,22.7961,VALID,297,VALID,0.276953,
2012-08-06, 00:12:04,VALID,1010.55,VALID,0,VALID,104,VALID,0,VALID,22.8562,VALID,297,VALID,0.0667969,
2012-08-06, 00:13:04,VALID,1010.56,VALID,0,VALID,104,VALID,0,VALID,22.8562,VALID,297,VALID,0,
2012-08-06, 00:14:04,VALID,1010.52,VALID,0,VALID,104,VALID,0,VALID,22.8757,VALID,297,VALID,0,
2012-08-06, 00:15:04,VALID,1010.53,VALID,0,VALID,104,VALID,0,VALID,22.8562,VALID,297,VALID,0,
2012-08-06, 00:16:04,VALID,1010.52,VALID,0,VALID,104,VALID,0,VALID,22.8757,VALID,297,VALID,0,
2012-08-06, 00:17:04,VALID,1010.53,VALID,0,VALID,104,VALID,0,VALID,22.8757,VALID,297,VALID,0,
2012-08-06, 00:18:04,VALID,1010.55,VALID,0,VALID,104,VALID,0,VALID,22.8952,VALID,297,VALID,0,
2012-08-06, 00:19:04,VALID,1010.54,VALID,0,VALID,103.992,VALID,0.112112,VALID,22.8952,VALID,297,VALID,0,
2012-08-06, 00:20:04,VALID,1010.57,VALID,0,VALID,104,VALID,0,VALID,22.8952,VALID,297,VALID,0,
2012-08-06, 00:21:04,VALID,1010.61,VALID,0,VALID,103.977,VALID,0,VALID,22.874,VALID,297,VALID,0,
2012-08-06, 00:22:04,VALID,1010.66,VALID,0,VALID,104,VALID,0,VALID,22.8952,VALID,297,VALID,0,
2012-08-06, 00:23:04,VALID,1010.7,VALID,0,VALID,103.962,VALID,0.112112,VALID,22.8952,VALID,1,VALID,0.974609,
2012-08-06, 00:24:04,VALID,1010.69,VALID,0,VALID,103.855,VALID,0.112112,VALID,22.8368,VALID,13,VALID,1.2375,
2012-08-06, 00:25:04,VALID,1010.68,VALID,0,VALID,104,VALID,0,VALID,22.7978,VALID,13,VALID,0.786328,
2012-08-06, 00:26:04,VALID,1010.65,VALID,0,VALID,104,VALID,0,VALID,22.7394,VALID,347,VALID,0.771484,
2012-08-06, 00:27:04,VALID,1010.64,VALID,0,VALID,104,VALID,0,VALID,22.7004,VALID,346,VALID,0.451172,
2012-08-06, 00:28:04,VALID,1010.56,VALID,0,VALID,104,VALID,0,VALID,22.6614,VALID,346,VALID,0.378516,
2012-08-06, 00:29:04,VALID,1010.54,VALID,0,VALID,104,VALID,0,VALID,22.6614,VALID,346,VALID,0.00195313,
2012-08-06, 00:30:04,VALID,1010.57,VALID,0,VALID,104,VALID,0,VALID,22.6614,VALID,346,VALID,0,
2012-08-06, 00:31:04,VALID,1010.57,VALID,0,VALID,104,VALID,0,VALID,22.642,VALID,346,VALID,0,
2012-08-06, 00:32:04,VALID,1010.61,VALID,0,VALID,104,VALID,0,VALID,22.6614,VALID,346,VALID,0.573438,
2012-08-06, 00:33:04,VALID,1010.63,VALID,0,VALID,104,VALID,0,VALID,22.6614,VALID,359,VALID,0.768359,
2012-08-06, 00:34:04,VALID,1010.65,VALID,0,VALID,104,VALID,0,VALID,22.642,VALID,359,VALID,0.490625,
2012-08-06, 00:35:04,VALID,1010.66,VALID,0,VALID,104,VALID,0,VALID,22.6013,VALID,359,VALID,0.364844,
2012-08-06, 00:36:04,VALID,1010.63,VALID,0,VALID,104,VALID,0,VALID,22.603,VALID,359,VALID,0.355469,
2012-08-06, 00:37:04,VALID,1010.61,VALID,0,VALID,104,VALID,0,VALID,22.603,VALID,349,VALID,0.651563,
2012-08-06, 00:38:04,VALID,1010.58,VALID,0,VALID,104,VALID,0,VALID,22.603,VALID,350,VALID,0.142578,
2012-08-06, 00:39:04,VALID,1010.53,VALID,0,VALID,104,VALID,0,VALID,22.603,VALID,350,VALID,0.431641,
2012-08-06, 00:40:04,VALID,1010.53,VALID,0,VALID,104,VALID,0,VALID,22.603,VALID,350,VALID,0.0492188,
2012-08-06, 00:41:04,VALID,1010.51,VALID,0,VALID,104,VALID,0,VALID,22.603,VALID,350,VALID,0.233594,
2012-08-06, 00:42:04,VALID,1010.5,VALID,0,VALID,104,VALID,0,VALID,22.6225,VALID,350,VALID,0,
2012-08-06, 00:43:04,VALID,1010.49,VALID,0,VALID,104,VALID,0,VALID,22.6225,VALID,350,VALID,0,
2012-08-06, 00:44:04,VALID,1010.46,VALID,0,VALID,104,VALID,0.112112,VALID,22.642,VALID,350,VALID,0.00078125,
2012-08-06, 00:45:04,VALID,1010.45,VALID,0,VALID,104,VALID,0,VALID,22.642,VALID,350,VALID,0,
2012-08-06, 00:46:04,VALID,1010.44,VALID,0,VALID,104,VALID,0,VALID,22.6208,VALID,350,VALID,0.319922,
2012-08-06, 00:47:04,VALID,1010.43,VALID,0,VALID,104,VALID,0,VALID,22.642,VALID,350,VALID,0.503125,
2012-08-06, 00:48:04,VALID,1010.4,VALID,0,VALID,104,VALID,0,VALID,22.6614,VALID,350,VALID,0.133984,
2012-08-06, 00:49:04,VALID,1010.4,VALID,0,VALID,104,VALID,0,VALID,22.6809,VALID,350,VALID,0.0015625,
2012-08-06, 00:50:04,VALID,1010.36,VALID,0,VALID,104,VALID,0,VALID,22.6809,VALID,350,VALID,0,
2012-08-06, 00:51:04,VALID,1010.31,VALID,0,VALID,104,VALID,0,VALID,22.6614,VALID,350,VALID,0.151172,
2012-08-06, 00:52:04,VALID,1010.3,VALID,0,VALID,104,VALID,0,VALID,22.6809,VALID,350,VALID,0,
2012-08-06, 00:53:04,VALID,1010.31,VALID,0,VALID,104,VALID,0,VALID,22.6809,VALID,350,VALID,0,
2012-08-06, 00:54:04,VALID,1010.33,VALID,0,VALID,104,VALID,0,VALID,22.7004,VALID,350,VALID,0,
2012-08-06, 00:55:04,VALID,1010.33,VALID,0,VALID,104,VALID,0,VALID,22.7199,VALID,350,VALID,0,
2012-08-06, 00:56:04,VALID,1010.35,VALID,0,VALID,104,VALID,0,VALID,22.7199,VALID,350,VALID,0.333203,
2012-08-06, 00:57:04,VALID,1010.35,VALID,0,VALID,104,VALID,0,VALID,22.7182,VALID,350,VALID,0.169531,
2012-08-06, 00:58:04,VALID,1010.36,VALID,0,VALID,104,VALID,0,VALID,22.7588,VALID,350,VALID,0,
2012-08-06, 00:59:04,VALID,1010.33,VALID,0,VALID,104,VALID,0,VALID,22.7588,VALID,350,VALID,0,
2012-08-06, 01:00:04,VALID,1010.31,VALID,0,VALID,104,VALID,0,VALID,22.7588,VALID,350,VALID,0,
2012-08-06, 01:01:04,VALID,1010.3,VALID,0,VALID,104,VALID,0,VALID,22.7783,VALID,350,VALID,0,
2012-08-06, 01:02:04,VALID,1010.3,VALID,0,VALID,104,VALID,0,VALID,22.7783,VALID,350,VALID,0,
2012-08-06, 01:03:04,VALID,1010.29,VALID,0,VALID,104,VALID,0,VALID,22.7978,VALID,350,VALID,0,
2012-08-06, 01:04:04,VALID,1010.29,VALID,0,VALID,104,VALID,0,VALID,22.7978,VALID,350,VALID,0,
2012-08-06, 01:05:04,VALID,1010.28,VALID,0,VALID,104,VALID,0,VALID,22.8173,VALID,353,VALID,0,
2012-08-06, 01:06:04,VALID,1010.28,VALID,0,VALID,104,VALID,0,VALID,22.7978,VALID,352,VALID,0,
2012-08-06, 01:07:04,VALID,1010.25,VALID,0,VALID,104,VALID,0.112112,VALID,22.7783,VALID,352,VALID,0,
2012-08-06, 01:08:04,VALID,1010.26,VALID,0,VALID,104,VALID,0,VALID,22.7783,VALID,352,VALID,0,
2012-08-06, 01:09:04,VALID,1010.23,VALID,0,VALID,104,VALID,0,VALID,22.7978,VALID,352,VALID,0,
2012-08-06, 01:10:04,VALID,1010.24,VALID,0,VALID,104,VALID,0,VALID,22.7978,VALID,352,VALID,0,
2012-08-06, 01:11:04,VALID,1010.22,VALID,0,VALID,104,VALID,0,VALID,22.7978,VALID,352,VALID,0,
2012-08-06, 01:12:04,VALID,1010.22,VALID,0,VALID,104,VALID,0,VALID,22.7978,VALID,352,VALID,0,
2012-08-06, 01:13:04,VALID,1010.24,VALID,0,VALID,104,VALID,0,VALID,22.8173,VALID,352,VALID,0,
2012-08-06, 01:14:04,VALID,1010.23,VALID,0,VALID,104,VALID,0,VALID,22.8173,VALID,352,VALID,0,
2012-08-06, 01:15:04,VALID,1010.21,VALID,0,VALID,104,VALID,0,VALID,22.8368,VALID,352,VALID,0,
2012-08-06, 01:16:04,VALID,1010.17,VALID,0,VALID,104,VALID,0,VALID,22.8368,VALID,352,VALID,0,
2012-08-06, 01:17:04,VALID,1010.13,VALID,0,VALID,104,VALID,0.112112,VALID,22.7961,VALID,352,VALID,0,
2012-08-06, 01:18:04,VALID,1010.1,VALID,0,VALID,104,VALID,0,VALID,22.8562,VALID,352,VALID,0,
2012-08-06, 01:19:04,VALID,1010.07,VALID,0,VALID,104,VALID,0,VALID,22.8562,VALID,352,VALID,0,
2012-08-06, 01:20:04,VALID,1010.01,VALID,0,VALID,104,VALID,0,VALID,22.8952,VALID,352,VALID,0,
2012-08-06, 01:21:04,VALID,1009.96,VALID,0,VALID,104,VALID,0,VALID,22.8952,VALID,352,VALID,0,
2012-08-06, 01:22:04,VALID,1009.96,VALID,0,VALID,104,VALID,0,VALID,22.9147,VALID,352,VALID,0,
2012-08-06, 01:23:04,VALID,1009.95,VALID,0,VALID,104,VALID,0,VALID,22.8952,VALID,218,VALID,0,
2012-08-06, 01:24:04,VALID,1009.97,VALID,0,VALID,104,VALID,0,VALID,22.9147,VALID,218,VALID,0,
2012-08-06, 01:25:04,VALID,1009.93,VALID,0,VALID,104,VALID,0,VALID,22.9147,VALID,218,VALID,0,
2012-08-06, 01:26:04,VALID,1009.94,VALID,0,VALID,104,VALID,0,VALID,22.9147,VALID,218,VALID,0,
2012-08-06, 01:27:04,VALID,1009.96,VALID,0,VALID,103.901,VALID,0.112112,VALID,22.9342,VALID,218,VALID,0,
2012-08-06, 01:28:04,VALID,1009.95,VALID,0,VALID,103.909,VALID,0,VALID,22.9536,VALID,218,VALID,0,
2012-08-06, 01:29:04,VALID,1009.93,VALID,0,VALID,103.985,VALID,0,VALID,22.9536,VALID,218,VALID,0,
2012-08-06, 01:30:04,VALID,1009.92,VALID,0,VALID,103.992,VALID,0,VALID,22.9536,VALID,218,VALID,0,
2012-08-06, 01:31:04,VALID,1009.85,VALID,0,VALID,104,VALID,0,VALID,22.9536,VALID,218,VALID,0,
2012-08-06, 01:32:04,VALID,1009.83,VALID,0,VALID,104,VALID,0,VALID,22.9342,VALID,218,VALID,0,
2012-08-06, 01:33:04,VALID,1009.8,VALID,0,VALID,104,VALID,0,VALID,22.9342,VALID,218,VALID,0,
2012-08-06, 01:34:04,VALID,1009.78,VALID,0,VALID,103.863,VALID,0,VALID,22.9342,VALID,214,VALID,0,
2012-08-06, 01:35:04,VALID,1009.74,VALID,0,VALID,103.855,VALID,0,VALID,22.9342,VALID,214,VALID,0,
2012-08-06, 01:36:04,VALID,1009.74,VALID,0,VALID,103.825,VALID,0,VALID,22.9147,VALID,214,VALID,0,
2012-08-06, 01:37:04,VALID,1009.71,VALID,0,VALID,103.787,VALID,0,VALID,22.8545,VALID,214,VALID,0,
2012-08-06, 01:38:04,VALID,1009.73,VALID,0,VALID,103.832,VALID,0,VALID,22.8757,VALID,214,VALID,0,
2012-08-06, 01:39:04,VALID,1009.72,VALID,0,VALID,103.939,VALID,0,VALID,22.8545,VALID,214,VALID,0,
2012-08-06, 01:40:04,VALID,1009.74,VALID,0,VALID,104,VALID,0,VALID,22.8545,VALID,214,VALID,0,
2012-08-06, 01:41:04,VALID,1009.77,VALID,0,VALID,104,VALID,0,VALID,22.8757,VALID,214,VALID,0,
2012-08-06, 01:42:04,VALID,1009.81,VALID,0,VALID,104,VALID,0,VALID,22.835,VALID,214,VALID,0,
2012-08-06, 01:43:04,VALID,1009.81,VALID,0,VALID,104,VALID,0,VALID,22.8562,VALID,214,VALID,0,
2012-08-06, 01:44:04,VALID,1009.84,VALID,0,VALID,104,VALID,0.112112,VALID,22.8562,VALID,181,VALID,0,
2012-08-06, 01:45:04,VALID,1009.85,VALID,0,VALID,104,VALID,0,VALID,22.8368,VALID,161,VALID,0.71875,
2012-08-06, 01:46:04,VALID,1009.87,VALID,0,VALID,104,VALID,0,VALID,22.8155,VALID,148,VALID,0.960938,
2012-08-06, 01:47:04,VALID,1009.87,VALID,0,VALID,104,VALID,0,VALID,22.8368,VALID,145,VALID,0.942187,
2012-08-06, 01:48:04,VALID,1009.9,VALID,0,VALID,104,VALID,0,VALID,22.8562,VALID,142,VALID,0.824609,
2012-08-06, 01:49:04,VALID,1009.88,VALID,0,VALID,104,VALID,0.112112,VALID,22.8757,VALID,140,VALID,0.691016,
2012-08-06, 01:50:04,VALID,1009.88,VALID,0,VALID,104,VALID,0,VALID,22.8952,VALID,133,VALID,0.915625,
2012-08-06, 01:51:04,VALID,1009.86,VALID,0,VALID,104,VALID,0,VALID,22.8952,VALID,135,VALID,0.740234,
2012-08-06, 01:52:04,VALID,1009.81,VALID,0,VALID,104,VALID,0,VALID,22.9147,VALID,126,VALID,0.614844,
2012-08-06, 01:53:04,VALID,1009.78,VALID,0,VALID,104,VALID,0,VALID,22.8952,VALID,126,VALID,0.549219,
2012-08-06, 01:54:04,VALID,1009.75,VALID,0,VALID,104,VALID,0,VALID,22.9147,VALID,127,VALID,0.566016,
2012-08-06, 01:55:04,VALID,1009.74,VALID,0,VALID,103.977,VALID,0.112112,VALID,22.9129,VALID,126,VALID,0.468359,
2012-08-06, 01:56:04,VALID,1009.68,VALID,0,VALID,103.764,VALID,0.112112,VALID,22.9536,VALID,123,VALID,0.676172,
2012-08-06, 01:57:04,VALID,1009.72,VALID,0,VALID,103.405,VALID,0.112112,VALID,22.9731,VALID,123,VALID,0.575391,
2012-08-06, 01:58:04,VALID,1009.67,VALID,0,VALID,103.161,VALID,0,VALID,22.9731,VALID,123,VALID,0.704687,
2012-08-06, 01:59:04,VALID,1009.65,VALID,0,VALID,102.91,VALID,0,VALID,22.9926,VALID,123,VALID,0.6125,
2012-08-06, 02:00:04,VALID,1009.63,VALID,0,VALID,102.818,VALID,0.112112,VALID,23.0121,VALID,145,VALID,0.783203,
2012-08-06, 02:01:04,VALID,1009.6,VALID,0,VALID,102.658,VALID,0,VALID,23.0121,VALID,151,VALID,0.815234,
2012-08-06, 02:02:04,VALID,1009.59,VALID,0,VALID,102.605,VALID,0,VALID,23.0121,VALID,155,VALID,0.832031,
2012-08-06, 02:03:04,VALID,1009.54,VALID,0,VALID,102.559,VALID,0,VALID,22.9926,VALID,133,VALID,1.20508,
2012-08-06, 02:04:04,VALID,1009.48,VALID,0,VALID,102.444,VALID,0.112112,VALID,23.0121,VALID,136,VALID,0.944141,
2012-08-06, 02:05:04,VALID,1009.45,VALID,0,VALID,102.467,VALID,0,VALID,22.9926,VALID,166,VALID,1.14258,
2012-08-06, 02:06:04,VALID,1009.44,VALID,0,VALID,102.551,VALID,0,VALID,23.0121,VALID,153,VALID,0.707422,
2012-08-06, 02:07:04,VALID,1009.43,VALID,0,VALID,102.666,VALID,0,VALID,22.9926,VALID,150,VALID,0.507422,
2012-08-06, 02:08:04,VALID,1009.44,VALID,0,VALID,102.81,VALID,0,VALID,23.0121,VALID,152,VALID,0.335156,
2012-08-06, 02:09:04,VALID,1009.44,VALID,0,VALID,102.902,VALID,0,VALID,22.9926,VALID,172,VALID,0.538672,
2012-08-06, 02:10:04,VALID,1009.45,VALID,0,VALID,102.971,VALID,0,VALID,22.9519,VALID,172,VALID,0.327344,
2012-08-06, 02:11:04,VALID,1009.45,VALID,0,VALID,103.039,VALID,0,VALID,22.9731,VALID,172,VALID,0.437109,
2012-08-06, 02:12:04,VALID,1009.45,VALID,0,VALID,103.093,VALID,0,VALID,22.9731,VALID,145,VALID,0.8875,
2012-08-06, 02:13:04,VALID,1009.44,VALID,0,VALID,103.115,VALID,0,VALID,22.9731,VALID,161,VALID,0.762109,
2012-08-06, 02:14:04,VALID,1009.45,VALID,0,VALID,103.115,VALID,0,VALID,22.9731,VALID,148,VALID,0.746875,
2012-08-06, 02:15:04,VALID,1009.46,VALID,0,VALID,103.131,VALID,0,VALID,22.9926,VALID,171,VALID,0.681641,
2012-08-06, 02:16:04,VALID,1009.48,VALID,0,VALID,103.123,VALID,0,VALID,22.9926,VALID,172,VALID,0.146094,
2012-08-06, 02:17:04,VALID,1009.53,VALID,0,VALID,103.108,VALID,0,VALID,23.0121,VALID,172,VALID,0.158984,
2012-08-06, 02:18:04,VALID,1009.53,VALID,0,VALID,103.093,VALID,0,VALID,22.9926,VALID,181,VALID,0.316797,
2012-08-06, 02:19:04,VALID,1009.52,VALID,0,VALID,103.131,VALID,0.112112,VALID,22.9926,VALID,181,VALID,0.330469,
2012-08-06, 02:20:04,VALID,1009.55,VALID,0,VALID,103.108,VALID,0,VALID,22.9909,VALID,181,VALID,0.0382813,
2012-08-06, 02:21:04,VALID,1009.59,VALID,0,VALID,103.131,VALID,0,VALID,23.0121,VALID,181,VALID,0.364844,
2012-08-06, 02:22:04,VALID,1009.56,VALID,0,VALID,103.154,VALID,0,VALID,23.0121,VALID,181,VALID,0.358594,
2012-08-06, 02:23:04,VALID,1009.56,VALID,0,VALID,103.131,VALID,0.112112,VALID,23.0121,VALID,181,VALID,0.167187,
2012-08-06, 02:24:04,VALID,1009.57,VALID,0,VALID,103.146,VALID,0,VALID,22.9926,VALID,181,VALID,0.0613281,
2012-08-06, 02:25:04,VALID,1009.57,VALID,0,VALID,103.192,VALID,0.112112,VALID,22.9909,VALID,181,VALID,0.285156,
2012-08-06, 02:26:04,VALID,1009.54,VALID,0,VALID,103.199,VALID,0,VALID,22.9909,VALID,181,VALID,0,
2012-08-06, 02:27:04,VALID,1009.55,VALID,0,VALID,103.215,VALID,0.112112,VALID,22.9926,VALID,181,VALID,0,
2012-08-06, 02:28:04,VALID,1009.51,VALID,0,VALID,103.26,VALID,0.112112,VALID,22.9714,VALID,181,VALID,0.36875,
2012-08-06, 02:29:04,VALID,1009.53,VALID,0,VALID,103.337,VALID,0.112112,VALID,22.9926,VALID,181,VALID,0.413672,
2012-08-06, 02:30:04,VALID,1009.52,VALID,0,VALID,103.375,VALID,0,VALID,22.9926,VALID,181,VALID,0,
2012-08-06, 02:31:04,VALID,1009.5,VALID,0,VALID,103.367,VALID,0.112112,VALID,22.9731,VALID,176,VALID,0.285156,
2012-08-06, 02:32:04,VALID,1009.51,VALID,0,VALID,103.443,VALID,0,VALID,22.9731,VALID,162,VALID,0.567578,
2012-08-06, 02:33:04,VALID,1009.54,VALID,0,VALID,103.489,VALID,0.112112,VALID,22.9714,VALID,169,VALID,1.02617,
2012-08-06, 02:34:04,VALID,1009.52,VALID,0,VALID,103.466,VALID,0,VALID,22.9926,VALID,160,VALID,0.473047,
2012-08-06, 02:35:04,VALID,1009.54,VALID,0,VALID,103.459,VALID,0,VALID,22.9926,VALID,160,VALID,0.5375,
2012-08-06, 02:36:04,VALID,1009.48,VALID,0,VALID,103.504,VALID,0.112112,VALID,22.9926,VALID,161,VALID,0.621484,
2012-08-06, 02:37:04,VALID,1009.49,VALID,0,VALID,103.527,VALID,0,VALID,22.9731,VALID,161,VALID,0.321094,
2012-08-06, 02:38:04,VALID,1009.5,VALID,0,VALID,103.558,VALID,0,VALID,22.9731,VALID,161,VALID,0.389844,
2012-08-06, 02:39:04,VALID,1009.49,VALID,0,VALID,103.573,VALID,0,VALID,22.9519,VALID,161,VALID,0.596875,
2012-08-06, 02:40:04,VALID,1009.5,VALID,0,VALID,103.581,VALID,0,VALID,22.9519,VALID,172,VALID,0.566797,
2012-08-06, 02:41:04,VALID,1009.52,VALID,0,VALID,103.581,VALID,0.112112,VALID,22.9342,VALID,173,VALID,0.517187,
2012-08-06, 02:42:04,VALID,1009.52,VALID,0,VALID,103.611,VALID,0,VALID,22.9536,VALID,175,VALID,0.335938,
2012-08-06, 02:43:04,VALID,1009.53,VALID,0,VALID,103.642,VALID,0,VALID,22.9519,VALID,175,VALID,0.290625,
2012-08-06, 02:44:04,VALID,1009.55,VALID,0,VALID,103.642,VALID,0,VALID,22.9536,VALID,195,VALID,0.711328,
2012-08-06, 02:45:04,VALID,1009.58,VALID,0,VALID,103.565,VALID,0,VALID,22.9536,VALID,195,VALID,0.272266,
2012-08-06, 02:46:04,VALID,1009.57,VALID,0,VALID,103.489,VALID,0,VALID,22.9536,VALID,195,VALID,0.0179687,
2012-08-06, 02:47:04,VALID,1009.6,VALID,0,VALID,103.443,VALID,0,VALID,22.9536,VALID,195,VALID,0.296094,
2012-08-06, 02:48:04,VALID,1009.6,VALID,0,VALID,103.405,VALID,0,VALID,22.9324,VALID,195,VALID,0.0503906,
2012-08-06, 02:49:04,VALID,1009.64,VALID,0,VALID,103.413,VALID,0,VALID,22.9536,VALID,195,VALID,0,
2012-08-06, 02:50:04,VALID,1009.64,VALID,0,VALID,103.337,VALID,0,VALID,22.9536,VALID,195,VALID,0.438672,
2012-08-06, 02:51:04,VALID,1009.66,VALID,0,VALID,103.123,VALID,0,VALID,22.9536,VALID,195,VALID,0,
2012-08-06, 02:52:04,VALID,1009.66,VALID,0,VALID,102.978,VALID,0,VALID,22.9536,VALID,195,VALID,0,
2012-08-06, 02:53:04,VALID,1009.68,VALID,0,VALID,102.986,VALID,0,VALID,22.9731,VALID,195,VALID,0,
2012-08-06, 02:54:04,VALID,1009.68,VALID,0,VALID,103.039,VALID,0,VALID,22.9536,VALID,195,VALID,0.326562,
2012-08-06, 02:55:04,VALID,1009.71,VALID,0,VALID,103.054,VALID,0,VALID,22.9147,VALID,322,VALID,0.93125,
2012-08-06, 02:56:04,VALID,1009.71,VALID,0,VALID,103.245,VALID,0,VALID,22.8562,VALID,323,VALID,0.752344,
2012-08-06, 02:57:04,VALID,1009.73,VALID,0,VALID,103.535,VALID,0,VALID,22.7978,VALID,323,VALID,0.651953,
2012-08-06, 02:58:04,VALID,1009.77,VALID,0,VALID,103.771,VALID,0,VALID,22.7182,VALID,323,VALID,0.235938,
2012-08-06, 02:59:04,VALID,1009.78,VALID,0,VALID,104,VALID,0,VALID,22.6809,VALID,323,VALID,0.394141,
2012-08-06, 03:00:04,VALID,1009.76,VALID,0,VALID,104,VALID,0,VALID,22.6208,VALID,323,VALID,0.423438,
2012-08-06, 03:01:04,VALID,1009.76,VALID,0,VALID,104,VALID,0,VALID,22.603,VALID,323,VALID,0.254687,
2012-08-06, 03:02:04,VALID,1009.77,VALID,0,VALID,104,VALID,0,VALID,22.564,VALID,323,VALID,0.453516,
2012-08-06, 03:03:04,VALID,1009.7,VALID,0,VALID,104,VALID,0,VALID,22.5446,VALID,329,VALID,0.649219,
2012-08-06, 03:04:04,VALID,1009.69,VALID,0,VALID,104,VALID,0,VALID,22.5251,VALID,344,VALID,0.653125,
2012-08-06, 03:05:04,VALID,1009.67,VALID,0,VALID,104,VALID,0,VALID,22.5251,VALID,9,VALID,0.797266,
2012-08-06, 03:06:04,VALID,1009.65,VALID,0,VALID,104,VALID,0,VALID,22.5251,VALID,26,VALID,0.563281,
2012-08-06, 03:07:04,VALID,1009.64,VALID,0,VALID,104,VALID,0,VALID,22.5056,VALID,27,VALID,0.648047,
2012-08-06, 03:08:04,VALID,1009.62,VALID,0,VALID,104,VALID,0,VALID,22.5056,VALID,46,VALID,0.705078,
2012-08-06, 03:09:04,VALID,1009.63,VALID,0,VALID,104,VALID,0,VALID,22.5251,VALID,48,VALID,0.5875,
2012-08-06, 03:10:04,VALID,1009.62,VALID,0,VALID,104,VALID,0,VALID,22.5251,VALID,44,VALID,0.645312,
2012-08-06, 03:11:04,VALID,1009.63,VALID,0,VALID,104,VALID,0,VALID,22.5056,VALID,44,VALID,0.507031,
2012-08-06, 03:12:04,VALID,1009.64,VALID,0,VALID,104,VALID,0.112112,VALID,22.5056,VALID,44,VALID,0.432813,
2012-08-06, 03:13:04,VALID,1009.65,VALID,0,VALID,104,VALID,0,VALID,22.4861,VALID,44,VALID,0.219922,
2012-08-06, 03:14:04,VALID,1009.68,VALID,0,VALID,104,VALID,0,VALID,22.4667,VALID,44,VALID,0.303516,
2012-08-06, 03:15:04,VALID,1009.69,VALID,0,VALID,104,VALID,0.112112,VALID,22.4455,VALID,44,VALID,0.378906,
2012-08-06, 03:16:04,VALID,1009.74,VALID,0,VALID,104,VALID,0,VALID,22.4277,VALID,44,VALID,0.366406,
2012-08-06, 03:17:04,VALID,1009.74,VALID,0,VALID,104,VALID,0,VALID,22.4082,VALID,44,VALID,0.347266,
2012-08-06, 03:18:04,VALID,1009.8,VALID,0,VALID,104,VALID,0,VALID,22.3693,VALID,44,VALID,0.182031,
2012-08-06, 03:19:04,VALID,1009.81,VALID,0,VALID,104,VALID,0,VALID,22.3303,VALID,44,VALID,0.0605469,
2012-08-06, 03:20:04,VALID,1009.83,VALID,0,VALID,104,VALID,0,VALID,22.3108,VALID,44,VALID,0,
2012-08-06, 03:21:04,VALID,1009.85,VALID,0,VALID,104,VALID,0,VALID,22.2914,VALID,44,VALID,0,
2012-08-06, 03:22:04,VALID,1009.84,VALID,0,VALID,104,VALID,0,VALID,22.2719,VALID,44,VALID,0,
2012-08-06, 03:23:04,VALID,1009.88,VALID,0,VALID,104,VALID,0,VALID,22.2524,VALID,44,VALID,0,
2012-08-06, 03:24:04,VALID,1009.92,VALID,0,VALID,104,VALID,0,VALID,22.2329,VALID,44,VALID,0,
2012-08-06, 03:25:04,VALID,1009.93,VALID,0,VALID,104,VALID,0,VALID,22.194,VALID,44,VALID,0.0476562,
2012-08-06, 03:26:04,VALID,1009.96,VALID,0,VALID,104,VALID,0,VALID,22.194,VALID,42,VALID,0.417578,
2012-08-06, 03:27:04,VALID,1009.95,VALID,0,VALID,104,VALID,0,VALID,22.1745,VALID,40,VALID,0.193359,
2012-08-06, 03:28:04,VALID,1009.96,VALID,0,VALID,104,VALID,0,VALID,22.1745,VALID,38,VALID,0.541797,
2012-08-06, 03:29:04,VALID,1009.95,VALID,0,VALID,104,VALID,0,VALID,22.1355,VALID,36,VALID,0,
2012-08-06, 03:30:04,VALID,1009.93,VALID,0,VALID,104,VALID,0,VALID,22.1355,VALID,36,VALID,0.41875,
2012-08-06, 03:31:04,VALID,1009.93,VALID,0,VALID,104,VALID,0,VALID,22.1161,VALID,37,VALID,0.407813,
2012-08-06, 03:32:04,VALID,1009.92,VALID,0,VALID,104,VALID,0,VALID,22.0966,VALID,44,VALID,0.304688,
2012-08-06, 03:33:04,VALID,1009.94,VALID,0,VALID,104,VALID,0,VALID,22.0771,VALID,44,VALID,0.496094,
2012-08-06, 03:34:04,VALID,1009.91,VALID,0,VALID,104,VALID,0,VALID,22.0576,VALID,49,VALID,0.639844,
2012-08-06, 03:35:04,VALID,1009.9,VALID,0,VALID,104,VALID,0,VALID,22.0382,VALID,53,VALID,0.426953,
2012-08-06, 03:36:04,VALID,1009.9,VALID,0,VALID,104,VALID,0,VALID,22.0187,VALID,52,VALID,0.433594,
2012-08-06, 03:37:04,VALID,1009.89,VALID,0,VALID,104,VALID,0,VALID,22.0187,VALID,53,VALID,0.173828,
2012-08-06, 03:38:04,VALID,1009.89,VALID,0,VALID,104,VALID,0,VALID,21.9992,VALID,52,VALID,0.418359,
2012-08-06, 03:39:04,VALID,1009.88,VALID,0,VALID,104,VALID,0,VALID,21.9992,VALID,53,VALID,0,
2012-08-06, 03:40:04,VALID,1009.9,VALID,0,VALID,104,VALID,0,VALID,21.9797,VALID,31,VALID,0.602344,
2012-08-06, 03:41:04,VALID,1009.93,VALID,0,VALID,104,VALID,0.112112,VALID,21.9781,VALID,30,VALID,0.404687,
2012-08-06, 03:42:04,VALID,1009.92,VALID,0,VALID,104,VALID,0,VALID,21.9797,VALID,30,VALID,0.358594,
2012-08-06, 03:43:04,VALID,1009.92,VALID,0,VALID,104,VALID,0.112112,VALID,21.9586,VALID,14,VALID,0.658984,
2012-08-06, 03:44:04,VALID,1009.94,VALID,0,VALID,104,VALID,0,VALID,21.9603,VALID,9,VALID,0.430469,
2012-08-06, 03:45:04,VALID,1009.94,VALID,0,VALID,104,VALID,0,VALID,21.9814,VALID,9,VALID,0,
2012-08-06, 03:46:04,VALID,1009.91,VALID,0,VALID,104,VALID,0,VALID,21.9814,VALID,9,VALID,0,
2012-08-06, 03:47:04,VALID,1009.9,VALID,0,VALID,104,VALID,0,VALID,21.9408,VALID,9,VALID,0.0382813,
2012-08-06, 03:48:04,VALID,1009.93,VALID,0,VALID,104,VALID,0.112112,VALID,21.9603,VALID,9,VALID,0,
2012-08-06, 03:49:04,VALID,1009.9,VALID,0,VALID,104,VALID,0,VALID,21.9408,VALID,9,VALID,0,
2012-08-06, 03:50:04,VALID,1009.93,VALID,0,VALID,104,VALID,0,VALID,21.9408,VALID,9,VALID,0.283203,
2012-08-06, 03:51:04,VALID,1009.95,VALID,0,VALID,104,VALID,0,VALID,21.9603,VALID,9,VALID,0.449609,
2012-08-06, 03:52:04,VALID,1009.94,VALID,0,VALID,104,VALID,0,VALID,21.9603,VALID,9,VALID,0.497266,
2012-08-06, 03:53:04,VALID,1009.97,VALID,0,VALID,104,VALID,0,VALID,21.9586,VALID,9,VALID,0.574609,
2012-08-06, 03:54:04,VALID,1009.97,VALID,0,VALID,104,VALID,0,VALID,21.9797,VALID,9,VALID,0.332031,